GW5800 Weather Reports


time (UTC)temp
C
wind
direction
speed
KPH
gust
KPH
rain 1hr
cm
rain 24hr
cm
rain mn
cm
humidity
%
barometer
mb
20260508034641 3 100 3.2 3.2 0.00 0.00 0.00 87 1013.7
20260508034138 3 91 3.2 3.2 0.00 0.00 0.00 85 1013.8
20260508033636 3 84 3.2 3.2 0.00 0.00 0.00 83 1013.8
20260508033134 3 96 1.6 3.2 0.00 0.00 0.00 82 1013.7
20260508032630 3 110 3.2 3.2 0.00 0.00 0.00 82 1013.6
20260508032128 3 118 3.2 4.8 0.00 0.00 0.00 82 1013.7
20260508031625 4 124 3.2 3.2 0.00 0.00 0.00 80 1013.8
20260508031121 4 100 1.6 3.2 0.00 0.00 0.00 79 1013.9
20260508030617 4 107 3.2 4.8 0.00 0.00 0.00 79 1013.9
20260508030115 4 112 3.2 3.2 0.00 0.00 0.00 79 1013.8
20260508025611 4 104 3.2 3.2 0.00 0.00 0.00 78 1013.8
20260508025108 4 107 3.2 3.2 0.00 0.00 0.00 77 1013.9
20260508024604 5 109 1.6 3.2 0.00 0.00 0.00 77 1013.9
20260508024102 5 118 3.2 3.2 0.00 0.00 0.00 76 1013.9
20260508023558 5 119 3.2 3.2 0.00 0.00 0.00 76 1013.7
20260508023055 5 120 0.0 3.2 0.00 0.00 0.00 74 1013.9
20260508022551 5 107 1.6 3.2 0.00 0.00 0.00 72 1013.8
20260508022048 5 103 0.0 3.2 0.00 0.00 0.00 72 1013.7
20260508021544 5 115 3.2 3.2 0.00 0.00 0.00 72 1013.7
20260508021040 6 117 3.2 4.8 0.00 0.00 0.00 71 1013.7
20260508020537 6 117 3.2 3.2 0.00 0.00 0.00 70 1013.7
20260508020035 6 110 3.2 4.8 0.00 0.00 0.00 69 1013.7
20260508015533 6 118 3.2 4.8 0.00 0.00 0.00 68 1013.6
20260508015030 6 109 3.2 3.2 0.00 0.00 0.00 66 1013.5
20260508014526 6 103 3.2 3.2 0.00 0.00 0.00 63 1013.8
20260508014022 6 124 3.2 4.8 0.00 0.00 0.00 62 1013.7
20260508013518 7 131 3.2 4.8 0.00 0.00 0.00 64 1013.6
20260508013016 7 130 3.2 3.2 0.00 0.00 0.00 63 1013.5
20260508012513 7 119 3.2 3.2 0.00 0.00 0.00 59 1013.5
20260508012010 7 114 3.2 4.8 0.00 0.00 0.00 60 1013.4
20260508011508 7 120 3.2 4.8 0.00 0.00 0.00 61 1013.5
20260508011005 8 106 3.2 4.8 0.00 0.00 0.00 58 1013.4
20260508010502 8 113 4.8 4.8 0.00 0.00 0.00 57 1013.5
20260508005959 8 115 4.8 6.4 0.00 0.00 0.00 59 1013.2
20260508005455 8 117 4.8 4.8 0.00 0.00 0.00 56 1013.3
20260508004953 9 116 4.8 4.8 0.00 0.00 0.00 53 1013.3
20260508004448 9 107 3.2 3.2 0.00 0.00 0.00 51 1013.2
20260508003945 10 127 0.0 3.2 0.00 0.00 0.00 49 1013.3
20260508003442 10 89 1.6 1.6 0.00 0.00 0.00 47 1013.0
20260508002940 10 60 0.0 1.6 0.00 0.00 0.00 47 1013.0
20260508002436 10 89 1.6 1.6 0.00 0.00 0.00 47 1013.0
20260508001932 10 61 1.6 1.6 0.00 0.00 0.00 46 1013.0
20260508001428 10 139 0.0 6.4 0.00 0.00 0.00 47 1013.0
20260508000925 10 75 0.0 3.2 0.00 0.00 0.00 47 1012.8
20260508000420 11 56 3.2 8.0 0.00 0.00 0.00 45 1012.8
20260507235918 11 4 1.6 6.4 0.00 0.00 0.00 45 1012.8
20260507235415 11 47 3.2 4.8 0.00 0.00 0.00 46 1012.6
20260507234912 11 228 8.0 8.0 0.00 0.00 0.00 41 1012.5
20260507234409 11 53 0.0 3.2 0.00 0.00 0.00 43 1012.8
20260507233905 11 44 0.0 3.2 0.00 0.00 0.00 44 1012.7
20260507233402 11 60 0.0 4.8 0.00 0.00 0.00 41 1012.8
20260507232901 11 327 3.2 14.5 0.00 0.00 0.00 42 1012.8
20260507232357 12 33 3.2 3.2 0.00 0.00 0.00 41 1012.7
20260507231854 12 25 0.0 6.4 0.00 0.00 0.00 42 1012.8
20260507231350 12 217 4.8 6.4 0.00 0.00 0.00 38 1012.6
20260507230847 12 251 6.4 8.0 0.00 0.00 0.00 41 1012.5
20260507230344 12 232 3.2 6.4 0.00 0.00 0.00 40 1012.6
20260507225844 12 338 3.2 11.3 0.00 0.00 0.00 41 1012.5
20260507225340 12 266 4.8 16.1 0.00 0.00 0.00 41 1012.5
20260507224837 12 298 4.8 9.7 0.00 0.00 0.00 43 1012.6
20260507224334 13 28 0.0 9.7 0.00 0.00 0.00 43 1012.9
20260507223829 12 29 3.2 3.2 0.00 0.00 0.00 48 1012.7
20260507223326 12 23 3.2 6.4 0.00 0.00 0.00 47 1012.9
20260507222823 12 214 6.4 12.9 0.00 0.00 0.00 48 1012.9
20260507222319 13 298 1.6 4.8 0.00 0.00 0.00 49 1012.7
20260507221817 12 13 3.2 3.2 0.00 0.00 0.00 49 1012.6
20260507221313 13 32 4.8 4.8 0.00 0.00 0.00 50 1012.5
20260507220809 12 40 3.2 6.4 0.00 0.00 0.00 51 1012.8
20260507220308 12 233 4.8 4.8 0.00 0.00 0.00 52 1012.6
20260507215803 12 245 1.6 4.8 0.00 0.00 0.00 53 1012.6
20260507215301 12 271 3.2 6.4 0.00 0.00 0.00 49 1012.4
20260507214758 13 0 8.0 12.9 0.00 0.00 0.00 47 1012.4
20260507214255 12 338 3.2 6.4 0.00 0.00 0.00 50 1012.4
20260507213750 12 204 4.8 12.9 0.00 0.00 0.00 52 1012.4
20260507213248 12 341 3.2 9.7 0.00 0.00 0.00 50 1012.2
20260507212744 12 14 3.2 4.8 0.00 0.00 0.00 53 1012.3
20260507212240 12 17 4.8 14.5 0.00 0.00 0.00 48 1011.9
20260507211737 13 4 6.4 6.4 0.00 0.00 0.00 47 1011.9
20260507211234 13 358 4.8 6.4 0.00 0.00 0.00 48 1012.0
20260507210731 12 131 3.2 4.8 0.00 0.00 0.00 48 1011.9
20260507210227 12 146 1.6 4.8 0.00 0.00 0.00 49 1011.7
20260507205724 13 17 4.8 6.4 0.00 0.00 0.00 47 1011.6
20260507205221 13 28 4.8 6.4 0.00 0.00 0.00 46 1011.7
20260507204716 13 1 0.0 17.7 0.00 0.00 0.00 47 1011.5
20260507204215 14 252 8.0 8.0 0.00 0.00 0.00 46 1011.4
20260507203712 14 33 8.0 9.7 0.00 0.00 0.00 42 1011.5
20260507203210 13 21 1.6 8.0 0.00 0.00 0.00 44 1011.7
20260507202705 14 240 3.2 6.4 0.00 0.00 0.00 43 1011.5
20260507202201 13 85 1.6 8.0 0.00 0.00 0.00 44 1011.5
20260507201656 14 254 6.4 12.9 0.00 0.00 0.00 43 1011.5
20260507201154 14 4 8.0 8.0 0.00 0.00 0.00 42 1011.6
20260507200650 14 32 8.0 9.7 0.00 0.00 0.00 44 1011.7
20260507200146 13 34 3.2 6.4 0.00 0.00 0.00 46 1011.7
20260507195643 13 347 3.2 4.8 0.00 0.00 0.00 44 1011.6
20260507195140 13 76 0.0 4.8 0.00 0.00 0.00 48 1011.7
20260507194637 13 305 1.6 12.9 0.00 0.00 0.00 46 1012.0
20260507194132 13 235 4.8 6.4 0.00 0.00 0.00 47 1011.9
20260507193629 13 234 3.2 8.0 0.00 0.00 0.00 46 1011.8
20260507193127 13 323 1.6 4.8 0.00 0.00 0.00 49 1012.0
20260507192622 13 200 3.2 4.8 0.00 0.00 0.00 47 1011.9
20260507192120 13 235 4.8 8.0 0.00 0.00 0.00 47 1011.9
20260507191615 13 245 0.0 3.2 0.00 0.00 0.00 47 1011.8
20260507191112 13 222 4.8 8.0 0.00 0.00 0.00 46 1011.8
20260507190609 13 21 4.8 4.8 0.00 0.00 0.00 48 1011.9
20260507190108 13 34 4.8 4.8 0.00 0.00 0.00 47 1011.8
20260507185606 13 235 0.0 9.7 0.00 0.00 0.00 47 1011.9
20260507185102 13 36 3.2 4.8 0.00 0.00 0.00 49 1012.0
20260507184601 13 180 3.2 6.4 0.00 0.00 0.00 49 1011.8
20260507184058 13 232 3.2 11.3 0.00 0.00 0.00 48 1011.9
20260507183554 13 175 0.0 11.3 0.00 0.00 0.00 43 1012.0
20260507183051 14 228 6.4 14.5 0.00 0.00 0.00 41 1011.9
20260507182548 14 173 3.2 9.7 0.00 0.00 0.00 41 1011.8
20260507182043 14 264 6.4 8.0 0.00 0.00 0.00 44 1011.6
20260507181541 14 207 4.8 11.3 0.00 0.00 0.00 41 1011.8
20260507181037 15 223 8.0 12.9 0.00 0.00 0.00 37 1011.8
20260507180533 15 254 6.4 11.3 0.00 0.00 0.00 38 1011.8
20260507180030 15 235 9.7 14.5 0.00 0.00 0.00 37 1011.8
20260507175526 14 234 3.2 6.4 0.00 0.00 0.00 38 1011.9
20260507175024 13 70 3.2 6.4 0.00 0.00 0.00 42 1012.0
20260507174521 13 89 0.0 9.7 0.00 0.00 0.00 43 1011.8
20260507174019 14 221 6.4 8.0 0.00 0.00 0.00 39 1011.9
20260507173515 14 64 3.2 8.0 0.00 0.00 0.00 40 1012.1
20260507173013 15 181 3.2 6.4 0.00 0.00 0.00 39 1012.0
20260507172508 14 15 6.4 6.4 0.00 0.00 0.00 42 1012.1
20260507172005 13 232 6.4 9.7 0.00 0.00 0.00 39 1012.0
20260507171501 14 157 6.4 16.1 0.00 0.00 0.00 41 1012.1
20260507170958 13 211 3.2 9.7 0.00 0.00 0.00 41 1012.3
20260507170455 13 166 3.2 3.2 0.00 0.00 0.00 43 1012.4
20260507165951 13 247 4.8 6.4 0.00 0.00 0.00 41 1012.4
20260507165447 13 245 6.4 8.0 0.00 0.00 0.00 43 1012.5
20260507164943 13 134 3.2 4.8 0.00 0.00 0.00 43 1012.4
20260507164440 13 248 4.8 6.4 0.00 0.00 0.00 44 1012.6
20260507163937 13 235 3.2 9.7 0.00 0.00 0.00 43 1012.6
20260507163435 13 19 4.8 8.0 0.00 0.00 0.00 44 1012.3
20260507162932 13 252 8.0 9.7 0.00 0.00 0.00 42 1012.4
20260507162427 13 220 4.8 14.5 0.00 0.00 0.00 45 1012.3
20260507161925 13 188 3.2 4.8 0.00 0.00 0.00 45 1012.4
20260507161420 13 250 6.4 11.3 0.00 0.00 0.00 42 1012.3
20260507160917 13 182 1.6 9.7 0.00 0.00 0.00 44 1012.6
20260507160413 13 229 8.0 8.0 0.00 0.00 0.00 44 1012.7
20260507155909 14 84 3.2 6.4 0.00 0.00 0.00 44 1012.5
20260507155405 14 262 0.0 6.4 0.00 0.00 0.00 42 1012.5
20260507154903 13 142 14.5 17.7 0.00 0.00 0.00 41 1012.7
20260507154359 12 169 3.2 6.4 0.00 0.00 0.00 47 1012.7
20260507153857 12 235 0.0 6.4 0.00 0.00 0.00 47 1012.8
20260507153353 14 338 3.2 8.0 0.00 0.00 0.00 46 1012.8
20260507152849 14 34 3.2 4.8 0.00 0.00 0.00 46 1012.5
20260507152346 13 160 3.2 4.8 0.00 0.00 0.00 41 1012.7
20260507151842 13 236 3.2 6.4 0.00 0.00 0.00 50 1012.8
20260507151338 12 92 1.6 3.2 0.00 0.00 0.00 52 1012.9
20260507150836 12 310 0.0 3.2 0.00 0.00 0.00 48 1012.8
20260507150332 13 318 1.6 3.2 0.00 0.00 0.00 48 1012.8
20260507145828 13 227 4.8 8.0 0.00 0.00 0.00 50 1012.8
20260507145325 12 181 1.6 3.2 0.00 0.00 0.00 50 1012.9
20260507144822 12 25 0.0 4.8 0.00 0.00 0.00 50 1012.9
20260507144319 12 18 1.6 4.8 0.00 0.00 0.00 49 1013.0
20260507143815 13 197 3.2 8.0 0.00 0.00 0.00 45 1012.9
20260507143313 13 127 3.2 4.8 0.00 0.00 0.00 53 1012.9
20260507142809 12 255 8.0 8.0 0.00 0.00 0.00 50 1012.8
20260507142307 12 351 1.6 4.8 0.00 0.00 0.00 52 1013.1
20260507141802 12 251 1.6 4.8 0.00 0.00 0.00 49 1012.9
20260507141259 12 257 3.2 9.7 0.00 0.00 0.00 51 1013.0
20260507140755 12 38 8.0 8.0 0.00 0.00 0.00 52 1013.1
20260507140253 13 141 0.0 8.0 0.00 0.00 0.00 47 1013.1
20260507135750 12 53 4.8 6.4 0.00 0.00 0.00 55 1013.3
20260507135247 12 234 4.8 9.7 0.00 0.00 0.00 58 1013.5
20260507134743 12 125 4.8 12.9 0.00 0.00 0.00 55 1013.5
20260507134240 12 244 1.6 3.2 0.00 0.00 0.00 58 1013.3
20260507133736 12 131 9.7 12.9 0.00 0.00 0.00 54 1013.5
20260507133232 12 136 6.4 6.4 0.00 0.00 0.00 58 1013.4
20260507132730 12 176 0.0 8.0 0.00 0.00 0.00 58 1013.4
20260507132227 11 182 3.2 8.0 0.00 0.00 0.00 59 1013.5
20260507131723 11 115 4.8 6.4 0.00 0.00 0.00 61 1013.7
20260507131221 11 207 3.2 4.8 0.00 0.00 0.00 61 1013.4
20260507130717 10 55 0.0 6.4 0.00 0.00 0.00 61 1013.5
20260507130215 10 204 0.0 3.2 0.00 0.00 0.00 63 1013.6
20260507125714 10 101 4.8 6.4 0.00 0.00 0.00 65 1013.5
20260507125211 10 268 3.2 6.4 0.00 0.00 0.00 66 1013.5
20260507124707 9 334 1.6 4.8 0.00 0.00 0.00 67 1013.6
20260507124205 8 156 0.0 1.6 0.00 0.00 0.00 73 1013.6
20260507123703 8 87 3.2 9.7 0.00 0.00 0.00 73 1013.6
20260507123200 8 113 3.2 3.2 0.00 0.00 0.00 75 1013.6
20260507122655 7 231 1.6 3.2 0.00 0.00 0.00 79 1013.6
20260507122151 6 221 0.0 4.8 0.00 0.00 0.00 87 1013.6
20260507121647 6 99 3.2 4.8 0.00 0.00 0.00 91 1013.4
20260507121143 6 102 3.2 4.8 0.00 0.00 0.00 93 1013.5
20260507120639 6 94 3.2 4.8 0.00 0.00 0.00 95 1013.7
20260507120136 5 109 3.2 6.4 0.00 0.00 0.00 96 1013.7
20260507115632 5 99 3.2 4.8 0.00 0.00 0.00 97 1013.6
20260507115128 5 118 3.2 9.7 0.00 0.00 0.00 97 1013.7
20260507114624 5 88 4.8 4.8 0.00 0.00 0.00 97 1013.8
20260507114121 4 101 4.8 4.8 0.00 0.00 0.00 97 1013.8
20260507113619 4 97 3.2 4.8 0.00 0.00 0.00 97 1013.6
20260507113116 4 65 3.2 4.8 0.00 0.00 0.00 97 1013.7
20260507112614 4 71 4.8 6.4 0.00 0.00 0.00 97 1013.6
20260507112110 3 75 3.2 4.8 0.00 0.00 0.00 97 1013.6
20260507111607 3 103 4.8 4.8 0.00 0.00 0.00 97 1013.6
20260507111104 3 93 4.8 6.4 0.00 0.00 0.00 97 1013.5
20260507110600 3 83 4.8 6.4 0.00 0.00 0.00 97 1013.5
20260507110057 3 81 3.2 4.8 0.00 0.00 0.00 97 1013.5
20260507105553 3 96 3.2 6.4 0.00 0.00 0.00 97 1013.5
20260507105049 3 92 6.4 6.4 0.00 0.00 0.00 97 1013.3
20260507104547 3 68 3.2 4.8 0.00 0.00 0.00 97 1013.2
20260507104043 3 96 4.8 6.4 0.00 0.00 0.00 97 1013.2
20260507103540 3 95 3.2 6.4 0.00 0.00 0.00 97 1013.2
20260507103037 3 116 4.8 4.8 0.00 0.00 0.00 97 1013.2
20260507102533 3 104 3.2 6.4 0.00 0.00 0.00 97 1013.0
20260507102031 3 119 3.2 6.4 0.00 0.00 0.00 97 1013.3
20260507101525 3 93 3.2 4.8 0.00 0.00 0.00 97 1013.1
20260507101021 3 91 3.2 3.2 0.00 0.00 0.00 97 1013.0
20260507100519 3 87 3.2 4.8 0.00 0.00 0.00 97 1013.0
20260507100017 3 83 1.6 4.8 0.00 0.00 0.00 97 1013.1
20260507095514 3 95 3.2 6.4 0.00 0.00 0.00 97 1012.9
20260507095011 3 84 3.2 4.8 0.00 0.00 0.00 97 1013.2
20260507094507 3 84 3.2 4.8 0.00 0.00 0.00 97 1013.0
20260507094005 3 111 3.2 4.8 0.00 0.00 0.00 97 1013.1
20260507093502 2 87 3.2 3.2 0.00 0.00 0.00 97 1013.2
20260507093000 2 99 3.2 4.8 0.00 0.00 0.00 97 1013.3
20260507092456 2 87 3.2 4.8 0.00 0.00 0.00 97 1013.2
20260507091953 2 95 3.2 3.2 0.00 0.00 0.00 97 1013.2
20260507091449 2 94 3.2 3.2 0.00 0.00 0.00 96 1013.3
20260507090945 2 89 3.2 3.2 0.00 0.00 0.00 96 1013.3
20260507090441 2 78 3.2 4.8 0.00 0.00 0.00 96 1013.2
20260507085938 2 97 3.2 3.2 0.00 0.00 0.00 96 1013.4
20260507085436 2 114 1.6 3.2 0.00 0.00 0.00 96 1013.3
20260507084932 2 116 3.2 3.2 0.00 0.00 0.00 96 1013.1
20260507084429 2 110 3.2 3.2 0.00 0.00 0.00 96 1013.3
20260507083926 2 98 3.2 3.2 0.00 0.00 0.00 96 1013.4
20260507083423 2 103 3.2 3.2 0.00 0.00 0.00 96 1013.5
20260507082919 2 67 3.2 3.2 0.00 0.00 0.00 96 1013.3
20260507082415 2 101 3.2 3.2 0.00 0.00 0.00 96 1013.4
20260507081912 2 98 1.6 3.2 0.00 0.00 0.00 96 1013.3
20260507081408 2 112 1.6 3.2 0.00 0.00 0.00 95 1013.6
20260507080905 2 101 3.2 3.2 0.00 0.00 0.00 95 1013.4
20260507080401 2 98 3.2 3.2 0.00 0.00 0.00 95 1013.5
20260507075857 2 93 1.6 3.2 0.00 0.00 0.00 95 1013.7
20260507075353 2 95 3.2 3.2 0.00 0.00 0.00 95 1013.5
20260507074849 2 93 3.2 3.2 0.00 0.00 0.00 95 1013.6
20260507074347 2 101 3.2 3.2 0.00 0.00 0.00 95 1013.6
20260507073844 2 92 3.2 3.2 0.00 0.00 0.00 95 1013.4
20260507073340 2 92 3.2 3.2 0.00 0.00 0.00 95 1013.6
20260507072838 3 98 1.6 3.2 0.00 0.00 0.00 94 1013.5
20260507072335 3 97 3.2 3.2 0.00 0.00 0.00 94 1013.7
20260507071833 3 87 1.6 3.2 0.00 0.00 0.00 94 1013.3
20260507071329 3 101 1.6 3.2 0.00 0.00 0.00 94 1013.4
20260507070826 3 96 3.2 3.2 0.00 0.00 0.00 94 1013.7
20260507070323 3 98 1.6 3.2 0.00 0.00 0.00 94 1013.6
20260507065820 3 79 0.0 3.2 0.00 0.00 0.00 93 1013.6
20260507065316 3 83 3.2 3.2 0.00 0.00 0.00 93 1013.7
20260507064814 3 100 1.6 3.2 0.00 0.00 0.00 93 1013.6
20260507064312 3 103 3.2 3.2 0.00 0.00 0.00 93 1013.9
20260507063810 3 101 3.2 3.2 0.00 0.00 0.00 93 1014.0
20260507063306 4 92 3.2 3.2 0.00 0.00 0.00 92 1013.9
20260507062803 4 99 3.2 3.2 0.00 0.00 0.00 92 1014.0
20260507062300 4 88 3.2 3.2 0.00 0.00 0.00 92 1014.1
20260507061758 4 79 3.2 4.8 0.00 0.00 0.00 91 1014.0
20260507061256 4 109 3.2 3.2 0.00 0.00 0.00 91 1014.1
20260507060754 5 107 3.2 3.2 0.00 0.00 0.00 90 1014.2
20260507060250 5 111 3.2 3.2 0.00 0.00 0.00 90 1014.3
20260507055747 5 110 1.6 3.2 0.00 0.00 0.00 90 1014.1
20260507055242 5 106 3.2 3.2 0.00 0.00 0.00 89 1014.2
20260507054739 5 101 3.2 3.2 0.00 0.00 0.00 89 1014.1
20260507054235 5 99 3.2 3.2 0.00 0.00 0.00 88 1014.3
20260507053733 5 89 1.6 3.2 0.00 0.00 0.00 88 1014.2
20260507053230 5 99 3.2 3.2 0.00 0.00 0.00 88 1014.2
20260507052729 5 108 1.6 3.2 0.00 0.00 0.00 88 1014.5
20260507052225 5 86 1.6 3.2 0.00 0.00 0.00 87 1014.4
20260507051723 5 101 3.2 3.2 0.00 0.00 0.00 87 1014.3
20260507051220 5 109 0.0 3.2 0.00 0.00 0.00 87 1014.3
20260507050716 6 111 1.6 3.2 0.00 0.00 0.00 87 1014.3
20260507050214 6 111 1.6 3.2 0.00 0.00 0.00 86 1014.5
20260507045710 6 92 1.6 3.2 0.00 0.00 0.00 86 1014.4
20260507045206 6 96 4.8 4.8 0.00 0.00 0.00 86 1014.4
20260507044704 6 101 3.2 4.8 0.00 0.00 0.00 85 1014.4
20260507044200 6 89 1.6 4.8 0.00 0.00 0.00 85 1014.9
20260507043656 6 128 3.2 4.8 0.00 0.00 0.00 84 1014.6
20260507043153 6 116 3.2 3.2 0.00 0.00 0.00 82 1014.9
20260507042650 6 107 3.2 3.2 0.00 0.00 0.00 82 1014.7
20260507042144 6 105 3.2 4.8 0.00 0.00 0.00 81 1014.7
20260507041642 6 110 3.2 4.8 0.00 0.00 0.00 81 1014.9
20260507041138 6 112 3.2 4.8 0.00 0.00 0.00 81 1014.7
20260507040636 6 102 1.6 3.2 0.00 0.00 0.00 81 1014.9
20260507040132 6 114 3.2 3.2 0.00 0.00 0.00 81 1014.9
20260507035628 6 108 3.2 3.2 0.00 0.00 0.00 79 1015.0
20260507035124 6 113 3.2 4.8 0.00 0.00 0.00 78 1014.9